TimeMDT,TemperatureF,Dew PointF,Humidity,Sea Level PressureIn,VisibilityMPH,Wind Direction,Wind SpeedMPH,Gust SpeedMPH,PrecipitationIn,Events,Conditions,WindDirDegrees,DateUTC
12:15 AM,43.9,30.0,58,30.28,10.0,North,23.0,28.8,N/A,,Clear,350,2012-10-04 06:15:00
12:35 AM,42.8,30.0,61,30.29,10.0,North,20.7,36.8,N/A,,Clear,350,2012-10-04 06:35:00
12:55 AM,41.9,30.2,63,30.27,10.0,North,19.6,27.6,N/A,,Clear,350,2012-10-04 06:55:00
1:15 AM,41.0,30.4,66,30.28,10.0,NNW,20.7,28.8,N/A,,Clear,340,2012-10-04 07:15:00
1:35 AM,40.6,30.9,68,30.28,10.0,North,24.2,29.9,N/A,,Clear,350,2012-10-04 07:35:00
1:55 AM,40.6,31.1,69,30.29,10.0,North,20.7,31.1,N/A,,Clear,350,2012-10-04 07:55:00
2:15 AM,40.5,31.3,70,30.29,10.0,North,18.4,23.0,N/A,,Clear,350,2012-10-04 08:15:00
2:35 AM,40.5,31.1,69,30.29,10.0,North,19.6,26.5,N/A,,Clear,350,2012-10-04 08:35:00
2:55 AM,40.3,31.1,70,30.29,10.0,NNW,18.4,25.3,N/A,,Clear,340,2012-10-04 08:55:00
3:15 AM,39.6,31.1,72,30.31,10.0,NNW,13.8,18.4,N/A,,Clear,330,2012-10-04 09:15:00
3:35 AM,38.3,31.1,75,30.31,10.0,NW,10.4,-,N/A,,Clear,320,2012-10-04 09:35:00
3:55 AM,37.2,30.7,77,30.31,10.0,NW,8.1,-,N/A,,Clear,310,2012-10-04 09:55:00
4:15 AM,36.5,30.0,77,30.31,10.0,NW,6.9,-,N/A,,Clear,310,2012-10-04 10:15:00
4:35 AM,36.0,29.8,78,30.31,10.0,WNW,3.5,-,N/A,,Clear,300,2012-10-04 10:35:00
4:55 AM,36.5,30.0,77,30.31,10.0,NW,8.1,-,N/A,,Clear,320,2012-10-04 10:55:00
5:15 AM,36.9,30.2,77,30.31,10.0,NW,6.9,-,N/A,,Clear,320,2012-10-04 11:15:00
5:35 AM,36.7,30.6,78,30.32,10.0,NW,6.9,-,N/A,,Clear,310,2012-10-04 11:35:00
5:55 AM,36.9,30.9,79,30.32,10.0,NW,9.2,-,N/A,,Clear,320,2012-10-04 11:55:00
6:15 AM,35.4,30.0,81,30.33,10.0,West,4.6,-,N/A,,Clear,270,2012-10-04 12:15:00
6:35 AM,32.7,28.8,85,30.34,10.0,Calm,Calm,-,N/A,,Scattered Clouds,0,2012-10-04 12:35:00
6:55 AM,32.5,29.1,87,30.34,10.0,West,4.6,-,N/A,,Mostly Cloudy,260,2012-10-04 12:55:00
7:15 AM,35.1,30.2,82,30.35,10.0,West,4.6,-,N/A,,Overcast,280,2012-10-04 13:15:00
7:35 AM,36.5,30.9,80,30.35,10.0,WSW,4.6,-,N/A,,Overcast,250,2012-10-04 13:35:00
7:55 AM,36.9,30.6,78,30.36,10.0,West,4.6,-,N/A,,Overcast,270,2012-10-04 13:55:00
8:15 AM,38.3,31.1,75,30.37,10.0,West,4.6,-,N/A,,Overcast,270,2012-10-04 14:15:00
8:35 AM,39.4,31.1,72,30.37,10.0,West,8.1,-,N/A,,Overcast,280,2012-10-04 14:35:00
8:55 AM,40.3,30.7,69,30.37,10.0,WNW,9.2,-,N/A,,Overcast,290,2012-10-04 14:55:00
9:15 AM,41.2,30.7,66,30.37,10.0,NW,6.9,-,N/A,,Overcast,320,2012-10-04 15:15:00
9:35 AM,44.6,28.9,54,30.36,10.0,North,18.4,21.9,N/A,,Mostly Cloudy,350,2012-10-04 15:35:00
9:55 AM,45.5,28.4,51,30.38,10.0,NNW,13.8,23.0,N/A,,Mostly Cloudy,330,2012-10-04 15:55:00
10:15 AM,44.8,27.9,52,30.37,10.0,North,15.0,23.0,N/A,,Mostly Cloudy,350,2012-10-04 16:15:00
10:35 AM,45.3,26.8,48,30.37,10.0,North,13.8,20.7,N/A,,Scattered Clouds,360,2012-10-04 16:35:00
10:55 AM,46.6,26.6,46,30.37,10.0,NNW,13.8,18.4,N/A,,Clear,330,2012-10-04 16:55:00
11:15 AM,47.1,26.1,44,30.37,10.0,NNW,13.8,20.7,N/A,,Clear,340,2012-10-04 17:15:00
11:35 AM,47.5,25.9,43,30.37,10.0,North,17.3,21.9,N/A,,Clear,360,2012-10-04 17:35:00
11:55 AM,48.2,25.5,41,30.36,10.0,North,12.7,20.7,N/A,,Clear,360,2012-10-04 17:55:00
12:35 PM,49.6,25.2,38,30.34,10.0,North,12.7,23.0,N/A,,Clear,360,2012-10-04 18:35:00
12:55 PM,50.5,24.3,36,30.34,10.0,North,10.4,20.7,N/A,,Clear,10,2012-10-04 18:55:00
1:15 PM,50.7,24.4,36,30.33,10.0,NNE,10.4,18.4,N/A,,Clear,30,2012-10-04 19:15:00
1:35 PM,51.4,24.4,35,30.32,10.0,North,11.5,-,N/A,,Clear,10,2012-10-04 19:35:00
1:55 PM,51.6,24.4,35,30.31,10.0,NNE,9.2,16.1,N/A,,Clear,20,2012-10-04 19:55:00
2:15 PM,51.8,24.1,34,30.30,10.0,North,10.4,16.1,0.01,,Clear,10,2012-10-04 20:15:00
2:35 PM,52.2,23.7,33,30.29,10.0,NNE,11.5,17.3,0.01,,Clear,20,2012-10-04 20:35:00
2:55 PM,51.1,22.6,33,30.29,10.0,NNE,6.9,20.7,0.01,,Clear,20,2012-10-04 20:55:00
3:15 PM,50.7,23.5,35,30.28,10.0,NNE,6.9,-,N/A,,Clear,20,2012-10-04 21:15:00
3:35 PM,51.1,23.4,34,30.28,10.0,NNE,6.9,17.3,N/A,,Clear,20,2012-10-04 21:35:00
3:55 PM,50.9,22.6,33,30.28,10.0,NE,8.1,-,N/A,,Clear,40,2012-10-04 21:55:00
4:15 PM,51.1,22.6,33,30.28,10.0,North,5.8,-,N/A,,Clear,10,2012-10-04 22:15:00
4:35 PM,50.9,22.8,33,30.28,10.0,NNE,6.9,-,N/A,,Clear,30,2012-10-04 22:35:00
4:55 PM,50.4,22.5,34,30.28,10.0,NE,9.2,-,N/A,,Clear,50,2012-10-04 22:55:00
5:15 PM,50.5,22.5,33,30.28,10.0,NE,6.9,-,N/A,,Clear,50,2012-10-04 23:15:00
5:35 PM,50.0,23.0,35,30.29,10.0,NE,5.8,-,N/A,,Clear,50,2012-10-04 23:35:00
5:55 PM,49.8,22.8,35,30.28,10.0,ENE,6.9,-,N/A,,Clear,60,2012-10-04 23:55:00
6:15 PM,47.5,22.5,37,30.29,10.0,ENE,5.8,-,N/A,,Clear,60,2012-10-05 00:15:00
6:35 PM,45.5,22.1,40,30.29,10.0,ENE,4.6,-,N/A,,Clear,60,2012-10-05 00:35:00
6:55 PM,43.9,22.5,43,30.31,10.0,NE,5.8,-,N/A,,Scattered Clouds,50,2012-10-05 00:55:00
7:15 PM,42.1,23.0,47,30.31,10.0,NE,5.8,-,N/A,,Scattered Clouds,50,2012-10-05 01:15:00
7:35 PM,41.0,22.8,48,30.32,10.0,ENE,9.2,-,N/A,,Scattered Clouds,60,2012-10-05 01:35:00
7:55 PM,41.9,23.5,48,30.32,10.0,NE,8.1,-,N/A,,Clear,50,2012-10-05 01:55:00
8:15 PM,41.0,23.5,50,30.32,10.0,NE,6.9,-,N/A,,Clear,50,2012-10-05 02:15:00
8:35 PM,39.9,23.4,52,30.32,10.0,ENE,8.1,-,N/A,,Clear,60,2012-10-05 02:35:00
8:55 PM,38.7,23.0,53,30.33,10.0,East,8.1,-,N/A,,Clear,80,2012-10-05 02:55:00
9:15 PM,38.3,23.5,55,30.33,10.0,ENE,8.1,-,N/A,,Clear,70,2012-10-05 03:15:00
9:35 PM,37.8,23.5,57,30.33,10.0,East,3.5,-,N/A,,Clear,90,2012-10-05 03:35:00
9:55 PM,36.5,23.5,59,30.33,10.0,ENE,6.9,-,N/A,,Clear,60,2012-10-05 03:55:00
10:15 PM,35.1,23.5,63,30.33,10.0,Calm,Calm,-,N/A,,Clear,0,2012-10-05 04:15:00
10:35 PM,35.1,24.4,65,30.33,10.0,East,3.5,-,N/A,,Clear,80,2012-10-05 04:35:00
10:55 PM,33.6,23.5,67,30.33,10.0,Calm,Calm,-,N/A,,Clear,0,2012-10-05 04:55:00
11:15 PM,32.9,23.2,67,30.32,10.0,ENE,3.5,-,N/A,,Clear,70,2012-10-05 05:15:00
11:35 PM,35.1,24.6,66,30.32,10.0,Calm,Calm,-,N/A,,Clear,0,2012-10-05 05:35:00
11:55 PM,34.9,24.1,65,30.31,10.0,ENE,4.6,-,N/A,,Clear,60,2012-10-05 05:55:00